Location: Rochester
(43.1610°N, 77.6109°W)
Time: 01:55:25
(UTC-05:00)

CAS-4A - Pass Details

Date: 28 October 2021
Orbit: 529 x 539 km, 43.0° (Epoch: 30 November)

Event Time Altitude Azimuth Distance (km) Brightness Sun altitude
Rises 18:28:44 0° 280° (W) 2,688 ? -4.6°
Reaches altitude 10° 18:31:11 10° 269° (W) 1,794 ? -5.0°
Maximum altitude 18:34:43 28° 209° (SSW) 1,023 ? -5.7°
Drops below altitude 10° 18:38:15 10° 150° (SSE) 1,786 ? -6.3°
Sets 18:40:41 0° 138° (SE) 2,673 ? -6.7°
